This is the latest recevied weather packets stored in our database for station/object N6OL. If no packets are shown the sender has not sent any weather packets the latest 10 day(s).
| Time | Temp. | Humidity | Pressure | Rain* | Wind** | Luminosity | Snow |
|---|---|---|---|---|---|---|---|
| 1778080503 | 14.44° C | 79% | 1020.4 hPa | 0 mm | - | 135 W/m² | - |
| 1778079603 | 13.89° C | 80% | 1020.3 hPa | 0 mm | - | 100 W/m² | - |
| 1778079303 | 13.89° C | 80% | 1020.3 hPa | 0 mm | - | 95 W/m² | - |
| 1778078703 | 13.89° C | 81% | 1020.4 hPa | 0 mm | - | 70 W/m² | - |
| 1778075724 | 13.33° C | 83% | 1019.7 hPa | 0 mm | - | 23 W/m² | - |
| 1778075103 | 13.33° C | 83% | 1019.6 hPa | 0 mm | - | 18 W/m² | - |
| 1778073903 | 13.33° C | 83% | 1019.5 hPa | 0 mm | - | 7 W/m² | - |
| 1778073603 | 13.33° C | 83% | 1019.4 hPa | 0 mm | - | 5 W/m² | - |
| 1778073003 | 13.33° C | 83% | 1019.3 hPa | 0 mm | - | 0 W/m² | - |
| 1778072703 | 13.33° C | 83% | 1019.4 hPa | 0 mm | - | 0 W/m² | - |
| 1778072403 | 13.33° C | 83% | 1019.4 hPa | 0 mm | - | 0 W/m² | - |
| 1778071203 | 13.33° C | 82% | 1019.1 hPa | 0 mm | - | 0 W/m² | - |
| 1778070603 | 13.33° C | 82% | 1019.2 hPa | 0 mm | - | 0 W/m² | - |
| 1778070324 | 13.33° C | 82% | 1019.1 hPa | 0 mm | - | 0 W/m² | - |
| 1778069403 | 13.33° C | 82% | 1019.1 hPa | 0 mm | - | 0 W/m² | - |
| 1778067303 | 13.33° C | 83% | 1019.1 hPa | 0 mm | - | 0 W/m² | - |
| 1778067003 | 13.33° C | 83% | 1018.9 hPa | 0 mm | - | 0 W/m² | - |
| 1778065203 | 13.33° C | 83% | 1019 hPa | 0 mm | - | 0 W/m² | - |
| 1778061603 | 13.89° C | 83% | 1018.6 hPa | 0 mm | - | 0 W/m² | - |
| 1778060703 | 13.89° C | 83% | 1018.8 hPa | 0 mm | - | 0 W/m² | - |
| 1778059503 | 13.89° C | 83% | 1018.6 hPa | 0 mm | - | 0 W/m² | - |
| 1778058303 | 13.89° C | 82% | 1018.6 hPa | 0 mm | - | 0 W/m² | - |
| 1778054403 | 13.89° C | 82% | 1018.7 hPa | 0 mm | - | 0 W/m² | - |
| 1778053203 | 13.89° C | 83% | 1018.5 hPa | 0 mm | - | 0 W/m² | - |
| 1778051103 | 13.33° C | 83% | 1018.2 hPa | 0 mm | - | 0 W/m² | - |
* Rain latest hour (hover to see other rain measurements)
** Current wind speed in m/s (hover to see current wind gust speed)